Simultaneous Nadir Overpasses (SNOs) Predictions

Prediction of SNOs between METOP-A and NOAA-19 Satellite Orbit:

Table of predicted SNOs for the next 14.0 days since TLE Epoch: 8/14/2020
Index Date (METOP-A) Time (METOP-A) Lat,Lon (METOP-A) SZA (METOP-A ) Date (NOAA-19) Time (NOAA-19) Lat,Lon (NOAA-19) SZA (NOAA-19 ) Distance(km) Time Diff (sec)
1 08/18/2020 17:40:00 80.66, -71.28 68.08 08/18/2020 17:38:57 80.64, -71.35 68.05 2.14 63
2 08/18/2020 18:30:42 -80.64, 95.78 111.94 08/18/2020 18:29:57 -80.65, 95.75 111.94 1.31 45
3 08/18/2020 19:21:22 80.65, -96.75 68.09 08/18/2020 19:20:57 80.64, -96.66 68.08 2.05 25
4 08/18/2020 20:12:04 -80.63, 70.32 111.93 08/18/2020 20:11:57 -80.64, 70.44 111.92 2.64 7
5 08/18/2020 21:02:44 80.64,-122.21 68.10 08/18/2020 21:02:58 80.64,-122.32 68.10 2.00 14
6 08/18/2020 21:53:25 -80.64, 45.18 111.89 08/18/2020 21:53:57 -80.64, 45.12 111.89 1.42 32
7 08/18/2020 22:44:06 80.63,-147.68 68.11 08/18/2020 22:44:58 80.64,-147.63 68.12 1.11 52
